Change the Weather History Date:

Tuesday, January 15, 2013

  Actual Average Record
Temperature  
Mean Temperature 68 °F -  
Max Temperature 82 °F 82 °F 87 °F (2006)
Min Temperature 54 °F 56 °F 48 °F (2000)
Cooling Degree Days 3    
Growing Degree Days 18 (Base 50)    
Moisture  
Dew Point 52 °F    
Average Humidity 53    
Maximum Humidity 76    
Minimum Humidity 27    
Precipitation  
Precipitation 0.00 in 0.00 in - ()
Sea Level Pressure  
Sea Level Pressure 29.93 in    
Wind  
Wind Speed 3 mph ()    
Max Wind Speed 10 mph    
Max Gust Speed -    
Visibility 2.5 miles    
Events      
Averages and records for this station are not official NWS values.
T = Trace of Precipitation, MM = Missing Value Source: Averaged Metar Reports

Daily Weather History Graph

Daily Weather History Graph

Search for Another Location

Airport or City:

Trip Planner

Search our weather history database for the weather conditions in past years. The results will help you decide how hot, cold, wet, or windy it might be!

Date:

Astronomy

Jan. 15, 2013 Rise Set
Actual Time 7:22 AM IST 6:15 PM IST
Civil Twilight 6:58 AM IST 6:39 PM IST
Nautical Twilight 6:30 AM IST 7:06 PM IST
Astronomical Twilight 6:03 AM IST 7:34 PM IST
Moon 9:45 AM IST (1/15) 10:01 PM IST (1/15)
Length of Visible Light 11h 40m
Length of Day
10h 52m
Waxing Crescent, 15% of the Moon is Illuminated
Jan 15
Waxing Crescent
Jan 19
First Quarter
Jan 27
Full
Feb 3
Last Quarter
Feb 10
New

Hourly Weather History & Observations

Time (IST) Temp. Heat Index Dew Point Humidity Pressure Visibility Wind Dir Wind Speed Gust Speed Precip Events Conditions
12:10 AM 66.2 °F - 46.4 °F 49% 29.89 in 2.2 mi NW 3.5 mph - N/A   Smoke
12:40 AM 66.2 °F - 44.6 °F 46% 29.89 in 2.2 mi WNW 2.3 mph - N/A   Smoke
1:10 AM 66.2 °F - 44.6 °F 46% 29.89 in 2.2 mi WNW 2.3 mph - N/A   Smoke
1:40 AM 64.4 °F - 42.8 °F 45% 29.89 in 2.2 mi WNW 2.3 mph - N/A   Smoke
2:10 AM 64.4 °F - 42.8 °F 45% 29.89 in 2.2 mi NW 2.3 mph - N/A   Smoke
2:30 AM 61 °F - 49 °F 55% 29.91 in 2 mi Calm Calm - -   Haze
2:40 AM 64.4 °F - 42.8 °F 45% 29.89 in 2.2 mi WNW 2.3 mph - N/A   Smoke
3:10 AM 64.4 °F - 42.8 °F 45% 29.89 in 2.2 mi Variable 2.3 mph - N/A   Smoke
3:40 AM 62.6 °F - 44.6 °F 52% 29.89 in 2.2 mi WNW 3.5 mph - N/A   Smoke
4:10 AM 60.8 °F - 42.8 °F 52% 29.89 in 2.2 mi Variable 3.5 mph - N/A   Smoke
4:40 AM 59.0 °F - 44.6 °F 59% 29.89 in 2.2 mi Variable 2.3 mph - N/A   Smoke
5:10 AM 59.0 °F - 44.6 °F 59% 29.89 in 2.2 mi Variable 2.3 mph - N/A   Smoke
5:30 AM 58 °F - 48 °F 61% 29.92 in 2 mi Calm Calm - -   Haze
5:40 AM 59.0 °F - 44.6 °F 59% 29.92 in 2.2 mi Variable 3.5 mph - N/A   Smoke
6:10 AM 59.0 °F - 46.4 °F 63% 29.92 in 2.2 mi NE 3.5 mph - N/A   Smoke
6:40 AM 57.2 °F - 46.4 °F 67% 29.92 in 2.2 mi NNE 3.5 mph - N/A   Smoke
8:10 AM 59.0 °F - 50.0 °F 72% 29.95 in 1.2 mi Calm Calm - N/A   Smoke
8:30 AM 58 °F - 51 °F 70% 29.99 in 1 mi Calm Calm - -   Haze
9:10 AM 66.2 °F - 48.2 °F 52% 29.98 in 2.2 mi NW 6.9 mph - N/A   Smoke
10:10 AM 71.6 °F - 55.4 °F 57% 29.98 in 2.5 mi NW 10.4 mph - N/A   Smoke
10:40 AM 73.4 °F - 55.4 °F 53% 29.98 in 2.8 mi North 9.2 mph - N/A   Smoke
11:30 AM 74 °F - 55 °F 42% 30.00 in 2 mi NW 3.5 mph - -   Haze
11:40 AM 77.0 °F - 55.4 °F 47% 29.95 in 3.1 mi NW 9.2 mph - N/A   Smoke
12:40 PM 78.8 °F - 55.4 °F 44% 29.92 in 3.1 mi WNW 10.4 mph - N/A   Smoke
1:10 PM 80.6 °F 80.5 °F 55.4 °F 42% 29.92 in 3.1 mi NW 9.2 mph - N/A   Smoke
1:40 PM 80.6 °F 80.5 °F 55.4 °F 42% 29.92 in 3.1 mi NW 5.8 mph - N/A   Smoke
2:10 PM 80.6 °F 80.5 °F 55.4 °F 42% 29.89 in 3.1 mi NW 8.1 mph - N/A   Smoke
2:30 PM 82 °F - 54 °F 27% 29.93 in 2 mi NW 4.6 mph - -  
2:40 PM 82.4 °F 81.7 °F 55.4 °F 39% 29.89 in 3.7 mi NW 6.9 mph - N/A   Unknown
3:10 PM 84.2 °F 83.0 °F 55.4 °F 37% 29.89 in 3.7 mi WNW 5.8 mph - N/A   Unknown
4:10 PM 82.4 °F 81.7 °F 55.4 °F 39% 29.89 in 3.7 mi NNW 4.6 mph - N/A   Unknown
4:40 PM 82.4 °F 81.7 °F 55.4 °F 39% 29.89 in 3.7 mi NW 4.6 mph - N/A   Unknown
5:10 PM 82.4 °F 81.7 °F 55.4 °F 39% 29.89 in 3.7 mi NW 5.8 mph - N/A   Unknown
5:30 PM 80 °F - 54 °F 30% 29.94 in 2 mi WNW 3.5 mph - -   Clear
6:10 PM 78.8 °F - 53.6 °F 42% 29.92 in 2.5 mi NW 3.5 mph - N/A   Smoke
6:40 PM 73.4 °F - 57.2 °F 57% 29.92 in 2.5 mi NW 3.5 mph - N/A   Smoke
7:10 PM 73.4 °F - 57.2 °F 57% 29.92 in 2.5 mi Calm Calm - N/A   Smoke
7:40 PM 71.6 °F - 53.6 °F 53% 29.95 in 2.5 mi North 3.5 mph - N/A   Smoke
8:10 PM 69.8 °F - 55.4 °F 60% 29.95 in 2.5 mi NNE 3.5 mph - N/A   Smoke
8:30 PM 68 °F - 62 °F 76% 29.97 in 2 mi Calm Calm - -   Haze
8:40 PM 69.8 °F - 55.4 °F 60% 29.95 in 2.5 mi NE 2.3 mph - N/A   Smoke
9:10 PM 69.8 °F - 53.6 °F 56% 29.95 in 2.5 mi NE 2.3 mph - N/A   Smoke
9:40 PM 68.0 °F - 53.6 °F 60% 29.95 in 2.5 mi NE 3.5 mph - N/A   Smoke
10:10 PM 66.2 °F - 55.4 °F 68% 29.95 in 2.5 mi NNE 2.3 mph - N/A   Smoke
10:40 PM 66.2 °F - 55.4 °F 68% 29.95 in 2.5 mi ENE 2.3 mph - N/A   Haze
11:10 PM 66.2 °F - 55.4 °F 68% 29.95 in 2.5 mi ENE 3.5 mph - N/A   Haze
11:30 PM 66 °F - 58 °F 67% 29.98 in 2 mi Calm Calm - -   Haze
11:40 PM 66.2 °F - 55.4 °F 68% 29.95 in 2.5 mi NNE 3.5 mph - N/A   Haze